User: anonymous   Login
Location: Unspecified
(0.0000°N, 0.0000°E)
Time: 07:05:00
(UTC+00:00)
Language:

RS-5 - Orbit

View from above orbital plane
View from above orbital plane
View from above satellite
View from above satellite

Ground track
Ground track

The orbit data is extracted from the following two-line orbital elements,

1 12999U 81120C   21067.78803834 -.00000107  00000-0 -13490-2 0  9998
2 12999  82.9581  52.7056 0013358 313.0501 103.5354 12.05270415725500
Epoch (UTC): 08 March 2021 18:54:46
Eccentricity: 0.0013358
inclination: 82.9581°
perigee height: 1646 km
apogee height: 1668 km
right ascension of ascending node: 52.7056°
argument of perigee: 313.0501°
revolutions per day: 12.05270415
mean anomaly at epoch: 103.5354°
orbit number at epoch: 72550

The dashed part of the orbit path shows where the satellite is in the earth's shadow,  

DLR